This is the latest recevied weather packets stored in our database for station/object SQ9IWE-13. If no packets are shown the sender has not sent any weather packets the latest 10 day(s).
| Time | Temp. | Humidity | Pressure | Rain* | Wind** | Luminosity | Snow |
|---|---|---|---|---|---|---|---|
| 1777929601 | 15.56° C | 51% | 1012.7 hPa | - | - | - | - |
| 1777929001 | 15.56° C | 52% | 1012.9 hPa | - | - | - | - |
| 1777928401 | 16.11° C | 52% | 1012.8 hPa | - | - | - | - |
| 1777927801 | 16.11° C | 52% | 1012.8 hPa | - | - | - | - |
| 1777926601 | 16.67° C | 53% | 1012.7 hPa | - | - | - | - |
| 1777926001 | 16.67° C | 53% | 1012.7 hPa | - | - | - | - |
| 1777925401 | 17.22° C | 52% | 1012.7 hPa | - | - | - | - |
| 1777924801 | 17.78° C | 51% | 1012.7 hPa | - | - | - | - |
| 1777923601 | 18.33° C | 50% | 1012.5 hPa | - | - | - | - |
| 1777923001 | 18.89° C | 49% | 1012.5 hPa | - | - | - | - |
| 1777922401 | 18.89° C | 49% | 1012.5 hPa | - | - | - | - |
| 1777921801 | 18.89° C | 49% | 1012.5 hPa | - | - | - | - |
| 1777921201 | 19.44° C | 48% | 1012.4 hPa | - | - | - | - |
| 1777920601 | 20° C | 48% | 1012.4 hPa | - | - | - | - |
| 1777920001 | 20° C | 47% | 1012.2 hPa | - | - | - | - |
| 1777919401 | 20.56° C | 45% | 1012.2 hPa | - | - | - | - |
| 1777918801 | 21.11° C | 44% | 1012.2 hPa | - | - | - | - |
| 1777918201 | 21.67° C | 43% | 1012.1 hPa | - | - | - | - |
| 1777917601 | 21.67° C | 43% | 1012 hPa | - | - | - | - |
| 1777917001 | 22.22° C | 43% | 1012 hPa | - | - | - | - |
| 1777916401 | 22.78° C | 42% | 1012 hPa | - | - | - | - |
| 1777915801 | 22.78° C | 42% | 1011.9 hPa | - | - | - | - |
| 1777915201 | 23.33° C | 42% | 1011.7 hPa | - | - | - | - |
| 1777914601 | 23.33° C | 41% | 1011.7 hPa | - | - | - | - |
| 1777914001 | 23.89° C | 41% | 1011.8 hPa | - | - | - | - |
* Rain since midnight (hover to see other rain measurements)
** Current wind speed in m/s (hover to see current wind gust speed)